9D9-WX Weather Reports


Display with metric or nautical units.
time (UTC)temp
F
wind
direction
speed
MPH
gust
MPH
rain 1hr
in
rain 24hr
in
rain mn
in
humidity
%
barometer
mb
20260505124511 51 308 9.0 0.0 0.00 0.00 0.00 73 977.0
20260505123029 51 295 9.0 0.0 0.00 0.00 0.00 73 975.6
20260505121512 50 297 10.0 0.0 0.00 0.00 0.00 73 975.6
20260505120035 49 282 11.0 0.0 0.00 0.00 0.00 73 975.6
20260505114512 49 276 10.0 0.0 0.00 0.00 0.00 71 975.6
20260505113025 49 268 10.0 0.0 0.00 0.00 0.00 68 974.2
20260505111511 49 262 9.0 0.0 0.00 0.00 0.00 68 974.2
20260505101511 50 260 11.0 0.0 0.00 0.00 0.00 59 972.7
20260505100035 51 262 11.0 0.0 0.00 0.00 0.00 59 972.7
20260505094511 51 265 10.0 0.0 0.00 0.00 0.00 70 972.9
20260505093030 51 264 8.0 0.0 0.00 0.00 0.00 75 972.7
20260505091511 52 256 12.0 0.0 0.00 0.00 0.00 75 972.6
20260505090036 51 246 7.0 0.0 0.00 0.00 0.00 75 972.6
20260505084509 52 262 9.0 0.0 0.00 0.00 0.00 76 973.0
20260505083027 53 262 9.0 0.0 0.00 0.00 0.00 83 972.3
20260505081511 53 258 10.0 0.0 0.00 0.00 0.00 83 972.3
20260505080033 54 253 10.0 0.0 0.00 0.00 0.00 73 972.6
20260505074511 54 246 10.0 0.0 0.00 0.00 0.00 76 971.8
20260505073030 55 240 9.0 0.0 0.00 0.00 0.00 76 971.8
20260505071512 55 232 11.0 0.0 0.00 0.00 0.00 76 971.9
20260505070033 56 230 11.0 0.0 0.00 0.00 0.00 76 971.9
20260505064511 56 247 10.0 0.0 0.00 0.00 0.00 77 972.4
20260505063024 57 236 11.0 0.0 0.00 0.00 0.00 76 971.8
20260505061512 57 236 10.0 0.0 0.00 0.00 0.00 76 971.8
20260505060035 58 237 9.0 0.0 0.00 0.00 0.00 76 971.8
20260505054512 58 241 11.0 0.0 0.00 0.00 0.00 74 972.8
20260505053030 58 228 12.0 0.0 0.00 0.00 0.00 63 971.6
20260505051511 60 225 12.0 0.0 0.00 0.00 0.00 63 971.7
20260505041511 61 206 14.0 0.0 0.00 0.00 0.00 63 971.8
20260505040034 62 203 16.0 0.0 0.00 0.00 0.00 63 971.8
20260505034508 62 211 14.0 0.0 0.00 0.00 0.00 61 971.4
20260505033029 62 192 16.0 0.0 0.00 0.00 0.00 58 971.3
20260505031511 62 204 15.0 0.0 0.00 0.00 0.00 58 971.3
20260505030034 62 212 14.0 0.0 0.00 0.00 0.00 58 971.3
20260505024511 63 206 15.0 0.0 0.00 0.00 0.00 53 971.7
20260505023029 64 218 16.0 0.0 0.00 0.00 0.00 57 971.8
20260505021511 64 216 17.0 0.0 0.00 0.00 0.00 57 971.8
20260505020033 64 207 16.0 0.0 0.00 0.00 0.00 57 971.8
20260505014511 64 212 15.0 0.0 0.00 0.00 0.00 61 970.9
20260505013027 65 213 16.0 0.0 0.00 0.00 0.00 61 970.9
20260505011512 64 219 15.0 0.0 0.00 0.00 0.00 61 970.8
20260505010031 64 205 15.0 0.0 0.00 0.00 0.00 61 970.8
20260505004511 66 207 11.0 0.0 0.00 0.00 0.00 38 971.4
20260505003027 67 207 11.0 0.0 0.00 0.00 0.00 43 972.2
20260505001510 68 205 8.0 0.0 0.00 0.00 0.00 43 972.1
20260505000029 69 214 6.0 0.0 0.00 0.00 0.00 43 972.1
20260504234510 70 229 7.0 0.0 0.00 0.00 0.00 33 972.0
20260504233027 70 245 9.0 0.0 0.00 0.00 0.00 33 971.9
20260504231509 71 253 11.0 0.0 0.00 0.00 0.00 33 971.9
20260504230031 72 257 13.0 0.0 0.00 0.00 0.00 33 971.9
20260504224510 72 257 15.0 0.0 0.00 0.00 0.00 36 971.5
20260504223029 73 255 17.0 0.0 0.00 0.00 0.00 37 971.9
20260504221510 73 249 18.0 0.0 0.00 0.00 0.00 37 971.9
20260504220034 73 248 18.0 0.0 0.00 0.00 0.00 37 971.9
20260504214509 73 249 17.0 0.0 0.00 0.00 0.00 37 973.0
20260504213029 73 253 17.0 0.0 0.00 0.00 0.00 37 973.0
20260504211509 73 251 19.0 0.0 0.00 0.00 0.00 36 972.0
20260504210032 73 248 20.0 0.0 0.00 0.00 0.00 36 972.0
20260504204514 73 241 20.0 0.0 0.00 0.00 0.00 38 972.7
20260504203022 74 240 19.0 0.0 0.00 0.00 0.00 38 972.7
20260504201515 74 239 18.0 0.0 0.00 0.00 0.00 38 972.7
20260504200029 74 227 19.0 0.0 0.00 0.00 0.00 39 971.9
20260504194515 74 226 20.0 0.0 0.00 0.00 0.00 40 973.0
20260504193030 74 222 19.0 0.0 0.00 0.00 0.00 40 973.0
20260504191515 73 228 19.0 0.0 0.00 0.00 0.00 40 972.9
20260504190033 73 225 18.0 0.0 0.00 0.00 0.00 40 972.9
20260504184510 73 229 19.0 0.0 0.00 0.00 0.00 30 974.0
20260504183031 73 227 18.0 0.0 0.00 0.00 0.00 30 973.7
20260504181514 73 229 17.0 0.0 0.00 0.00 0.00 30 973.7
20260504180035 73 231 18.0 0.0 0.00 0.00 0.00 30 973.7
20260504174514 72 234 18.0 0.0 0.00 0.00 0.00 34 974.6
20260504173024 72 232 18.0 0.0 0.00 0.00 0.00 37 974.4
20260504171514 71 231 18.0 0.0 0.00 0.00 0.00 37 974.4